When you browse on this site, cookies collect data to enhance your experience and personalize the content and advertising you see.
Visit our Privacy Policy to learn more. By continuing to use the site, you agree to this use of cookies and data.
  • In United Kingdom
  • List of Countries
  • For 7 days
  • Water Temperature
  • Satellite Maps
  • Weather Map
  • Weather Widgets
  • user-avatar
    Login

    Hourly Weather Ayacucho

    Today, 17 February, Sunday

    Time Temperature Precipitation Wind Pressure Humidity
    00:00 +13°C° 1.2 mm 0 mps 542 mmHg 87%
    01:00 +13°C° 1.2 mm 0 mps 542 mmHg 87%
    02:00 +13°C° 0.7 mm 0 mps 541 mmHg 87%
    03:00 +13°C° 0.7 mm 0 mps 541 mmHg 87%
    04:00 +13°C° 0.7 mm 0 mps 541 mmHg 86%
    05:00 +14°C° 0.7 mm 1 mps 541 mmHg 85%
    06:00 +14°C° 0.7 mm 1 mps 541 mmHg 83%
    07:00 +14°C° 0.7 mm 1 mps 541 mmHg 82%
    08:00 +15°C° 0.2 mm 1 mps 542 mmHg 76%
    09:00 +16°C° 0.2 mm 2 mps 543 mmHg 71%
    10:00 +17°C° 0.2 mm 2 mps 543 mmHg 66%
    11:00 +18°C° 0 mm 3 mps 543 mmHg 63%
    12:00 +19°C° 0 mm 3 mps 543 mmHg 60%
    13:00 +19°C° 0 mm 3 mps 543 mmHg 57%
    14:00 +19°C° 0 mm 3 mps 543 mmHg 57%
    15:00 +19°C° 0 mm 3 mps 542 mmHg 58%
    16:00 +19°C° 0 mm 3 mps 542 mmHg 58%
    17:00 +18°C° 0.2 mm 3 mps 542 mmHg 64%
    18:00 +16°C° 0.2 mm 2 mps 541 mmHg 71%
    19:00 +15°C° 0.2 mm 2 mps 541 mmHg 77%
    20:00 +15°C° 0.7 mm 2 mps 541 mmHg 79%
    21:00 +14°C° 0.7 mm 2 mps 542 mmHg 82%
    22:00 +14°C° 0.7 mm 2 mps 542 mmHg 85%
    23:00 +14°C° 1.4 mm 2 mps 542 mmHg 85%

    Tomorrow, 18 February, Monday

    Time Temperature Precipitation Wind Pressure Humidity
    00:00 +14°C° 1.4 mm 1 mps 542 mmHg 85%
    01:00 +13°C° 1.4 mm 1 mps 541 mmHg 86%
    02:00 +13°C° 0.4 mm 1 mps 541 mmHg 86%
    03:00 +13°C° 0.4 mm 1 mps 541 mmHg 86%
    04:00 +13°C° 0.4 mm 1 mps 541 mmHg 86%
    05:00 +13°C° 0.2 mm 1 mps 541 mmHg 84%
    06:00 +14°C° 0.2 mm 1 mps 541 mmHg 83%
    07:00 +14°C° 0.2 mm 1 mps 542 mmHg 82%
    08:00 +15°C° 0.2 mm 1 mps 543 mmHg 77%
    09:00 +16°C° 0.2 mm 1 mps 543 mmHg 72%
    10:00 +16°C° 0.2 mm 1 mps 544 mmHg 68%
    11:00 +17°C° 0.1 mm 2 mps 544 mmHg 64%
    12:00 +18°C° 0.1 mm 2 mps 544 mmHg 60%
    13:00 +19°C° 0.1 mm 3 mps 544 mmHg 55%
    14:00 +18°C° 0.3 mm 2 mps 543 mmHg 57%
    15:00 +18°C° 0.3 mm 2 mps 542 mmHg 59%
    16:00 +17°C° 0.3 mm 2 mps 542 mmHg 60%
    17:00 +16°C° 1.1 mm 2 mps 541 mmHg 67%
    18:00 +15°C° 1.1 mm 1 mps 541 mmHg 74%
    19:00 +14°C° 1.1 mm 1 mps 541 mmHg 81%
    20:00 +14°C° 0.4 mm 1 mps 542 mmHg 82%
    21:00 +14°C° 0.4 mm 1 mps 542 mmHg 82%
    22:00 +14°C° 0.4 mm 1 mps 543 mmHg 82%
    23:00 +13°C° 0.1 mm 0 mps 542 mmHg 82%

    Day after tomorrow, 19 February, Tuesday

    Time Temperature Precipitation Wind Pressure Humidity
    00:00 +13°C° 0.1 mm 0 mps 542 mmHg 81%
    01:00 +12°C° 0.1 mm 0 mps 541 mmHg 81%
    02:00 +13°C° 0.1 mm 1 mps 541 mmHg 79%
    03:00 +13°C° 0.1 mm 1 mps 541 mmHg 77%
    04:00 +13°C° 0.1 mm 1 mps 540 mmHg 74%
    05:00 +13°C° 0 mm 1 mps 541 mmHg 70%
    06:00 +14°C° 0 mm 1 mps 541 mmHg 65%
    07:00 +15°C° 0 mm 1 mps 542 mmHg 60%
    08:00 +16°C° 0 mm 1 mps 543 mmHg 54%
    09:00 +18°C° 0 mm 1 mps 543 mmHg 48%
    10:00 +19°C° 0 mm 1 mps 544 mmHg 41%
    11:00 +19°C° 0 mm 2 mps 544 mmHg 42%
    12:00 +20°C° 0 mm 2 mps 544 mmHg 42%
    13:00 +21°C° 0 mm 3 mps 543 mmHg 42%
    14:00 +20°C° 0 mm 3 mps 543 mmHg 46%
    15:00 +20°C° 0 mm 3 mps 542 mmHg 49%
    16:00 +19°C° 0 mm 3 mps 541 mmHg 52%
    17:00 +18°C° 0.1 mm 2 mps 541 mmHg 57%
    18:00 +17°C° 0.1 mm 2 mps 541 mmHg 63%
    19:00 +15°C° 0.1 mm 1 mps 541 mmHg 68%
    20:00 +15°C° 0.3 mm 1 mps 541 mmHg 71%
    21:00 +14°C° 0.3 mm 0 mps 542 mmHg 73%
    22:00 +14°C° 0.3 mm 0 mps 542 mmHg 75%
    23:00 +13°C° 0.3 mm 0 mps 542 mmHg 77%

    20 February, Wednesday

    Time Temperature Precipitation Wind Pressure Humidity
    00:00 +13°C° 0.3 mm 0 mps 542 mmHg 79%
    01:00 +13°C° 0.3 mm 0 mps 541 mmHg 80%
    02:00 +13°C° 0.4 mm 0 mps 541 mmHg 81%
    03:00 +12°C° 0.4 mm 0 mps 541 mmHg 82%
    04:00 +12°C° 0.4 mm 0 mps 540 mmHg 84%
    05:00 +12°C° 0.2 mm 0 mps 541 mmHg 81%
    06:00 +13°C° 0.2 mm 0 mps 541 mmHg 79%
    07:00 +13°C° 0.2 mm 0 mps 541 mmHg 77%
    08:00 +14°C° 0.2 mm 0 mps 542 mmHg 72%
    09:00 +16°C° 0.2 mm 1 mps 542 mmHg 67%
    10:00 +18°C° 0.2 mm 1 mps 543 mmHg 62%
    11:00 +17°C° 0.3 mm 2 mps 542 mmHg 62%
    12:00 +18°C° 0.3 mm 2 mps 542 mmHg 61%
    13:00 +18°C° 0.3 mm 3 mps 542 mmHg 60%
    14:00 +18°C° 0.2 mm 3 mps 541 mmHg 61%
    15:00 +18°C° 0.2 mm 3 mps 541 mmHg 62%
    16:00 +18°C° 0.2 mm 3 mps 541 mmHg 62%
    17:00 +17°C° 0.1 mm 2 mps 541 mmHg 66%
    18:00 +16°C° 0.1 mm 2 mps 541 mmHg 71%
    19:00 +15°C° 0.1 mm 1 mps 541 mmHg 75%
    20:00 +14°C° 0.2 mm 1 mps 541 mmHg 75%
    21:00 +14°C° 0.2 mm 1 mps 542 mmHg 76%
    22:00 +14°C° 0.2 mm 1 mps 542 mmHg 77%
    23:00 +14°C° 0.2 mm 1 mps 542 mmHg 78%

    21 February, Thursday

    Time Temperature Precipitation Wind Pressure Humidity
    00:00 +13°C° 0.2 mm 0 mps 541 mmHg 79%
    01:00 +12°C° 0.2 mm 0 mps 541 mmHg 80%
    02:00 +12°C° 0.2 mm 0 mps 541 mmHg 82%
    03:00 +12°C° 0.2 mm 0 mps 540 mmHg 84%
    04:00 +11°C° 0.2 mm 0 mps 540 mmHg 86%
    05:00 +12°C° 0.2 mm 0 mps 540 mmHg 84%
    06:00 +13°C° 0.2 mm 1 mps 541 mmHg 82%
    07:00 +13°C° 0.2 mm 1 mps 542 mmHg 80%
    08:00 +14°C° 0.5 mm 1 mps 542 mmHg 76%
    09:00 +15°C° 0.5 mm 1 mps 543 mmHg 72%
    10:00 +16°C° 0.5 mm 1 mps 543 mmHg 68%
    11:00 +16°C° 0.4 mm 2 mps 543 mmHg 66%
    12:00 +17°C° 0.4 mm 2 mps 543 mmHg 64%
    13:00 +18°C° 0.4 mm 2 mps 543 mmHg 62%
    14:00 +18°C° 0.3 mm 2 mps 542 mmHg 63%
    15:00 +17°C° 0.3 mm 2 mps 542 mmHg 64%
    16:00 +17°C° 0.3 mm 2 mps 542 mmHg 65%
    17:00 +16°C° 1 mm 2 mps 541 mmHg 70%
    18:00 +15°C° 1 mm 1 mps 541 mmHg 76%
    19:00 +14°C° 1 mm 1 mps 541 mmHg 82%
    20:00 +14°C° 0.7 mm 1 mps 541 mmHg 83%
    21:00 +14°C° 0.7 mm 1 mps 542 mmHg 84%
    22:00 +14°C° 0.7 mm 1 mps 542 mmHg 86%
    23:00 +14°C° 0.4 mm 1 mps 542 mmHg 87%

    22 February, Friday

    Time Temperature Precipitation Wind Pressure Humidity
    00:00 +13°C° 0.4 mm 1 mps 541 mmHg 87%
    01:00 +13°C° 0.4 mm 1 mps 541 mmHg 88%
    02:00 +12°C° 0.5 mm 0 mps 541 mmHg 87%
    03:00 +12°C° 0.5 mm 0 mps 541 mmHg 86%
    04:00 +12°C° 0.5 mm 0 mps 541 mmHg 85%
    05:00 +12°C° 0.5 mm 0 mps 541 mmHg 83%
    06:00 +12°C° 0.5 mm 0 mps 541 mmHg 80%
    07:00 +12°C° 0.5 mm 0 mps 542 mmHg 78%
    08:00 +14°C° 0.2 mm 1 mps 542 mmHg 72%
    09:00 +16°C° 0.2 mm 1 mps 543 mmHg 65%
    10:00 +18°C° 0.2 mm 1 mps 543 mmHg 59%
    11:00 +19°C° 0.1 mm 1 mps 544 mmHg 57%
    12:00 +19°C° 0.1 mm 2 mps 544 mmHg 55%
    13:00 +20°C° 0.1 mm 2 mps 544 mmHg 54%
    14:00 +20°C° 0.2 mm 3 mps 543 mmHg 54%
    15:00 +20°C° 0.2 mm 3 mps 543 mmHg 54%
    16:00 +20°C° 0.2 mm 3 mps 543 mmHg 55%
    17:00 +19°C° 0.2 mm 2 mps 542 mmHg 61%
    18:00 +17°C° 0.2 mm 2 mps 542 mmHg 68%
    19:00 +15°C° 0.2 mm 1 mps 542 mmHg 75%
    20:00 +15°C° 0 mm 1 mps 542 mmHg 77%
    21:00 +14°C° 0 mm 1 mps 542 mmHg 79%
    22:00 +14°C° 0 mm 1 mps 542 mmHg 81%
    23:00 +14°C° 0 mm 1 mps 542 mmHg 82%
    Show more